EW6289 Weather Reports


Display with metric or nautical units.
time (UTC)temp
F
wind
direction
speed
MPH
gust
MPH
rain 1hr
in
rain 24hr
in
rain mn
in
humidity
%
barometer
mb
20260508011558 0 199 0.0 0.0 0.00 0.00 0.00 1009.9
20260508010050 0 257 0.0 0.0 0.00 0.00 0.00 1009.7
20260508004544 0 244 0.0 0.0 0.00 0.00 0.00 1009.5
20260508003039 0 274 0.0 0.0 0.00 0.00 0.00 1009.2
20260508001539 0 304 0.0 0.0 0.00 0.00 0.00 1009.0
20260508000032 0 250 0.0 0.0 0.00 0.00 0.00 1008.7
20260507234523 0 242 0.0 0.0 0.00 0.00 0.00 1008.6
20260507233031 0 261 0.0 0.0 0.00 0.00 0.00 1008.5
20260507231516 0 278 0.0 0.0 0.00 0.00 0.00 1008.2
20260507230010 0 219 0.0 0.0 0.00 0.00 0.00 1008.1
20260507224506 0 252 0.0 0.0 0.00 0.00 0.00 1008.0
20260507223103 0 286 0.0 0.0 0.00 0.00 0.00 1007.8
20260507221557 0 288 0.0 0.0 0.00 0.00 0.00 1007.7
20260507220051 0 80 0.0 4.0 0.00 0.00 0.00 1007.5
20260507214546 0 277 0.0 10.0 0.00 0.00 0.00 1007.4
20260507213041 0 273 0.0 4.0 0.00 0.00 0.00 1007.1
20260507211535 0 236 0.0 3.0 0.00 0.00 0.00 1007.3
20260507210033 0 260 0.0 2.0 0.00 0.00 0.00 1007.0
20260507204526 0 295 0.0 6.0 0.00 0.00 0.00 1007.1
20260507203053 0 236 0.0 5.0 0.00 0.00 0.00 1007.1
20260507201549 0 262 0.0 5.0 0.00 0.00 0.00 1007.1
20260507200040 0 126 0.0 4.0 0.00 0.00 0.00 1007.2
20260507194604 0 279 0.0 2.0 0.00 0.00 0.00 1007.5
20260507193038 0 267 0.0 5.0 0.00 0.00 0.00 1007.5
20260507191534 0 256 0.0 1.0 0.00 0.00 0.00 1007.5
20260507190022 0 338 0.0 10.0 0.00 0.00 0.00 1007.5
20260507184517 0 250 2.0 9.0 0.00 0.00 0.00 1007.7
20260507183024 0 296 0.0 9.0 0.00 0.00 0.00 1007.8
20260507181508 0 221 0.0 0.0 0.00 0.00 0.00 1007.8
20260507180037 0 242 0.0 0.0 0.00 0.00 0.00 1008.0
20260507174530 0 209 0.0 0.0 0.00 0.00 0.00 1008.0
20260507173029 0 268 0.0 7.0 0.00 0.00 0.00 1008.3
20260507171531 0 263 0.0 1.0 0.00 0.00 0.00 1008.4
20260507170012 0 254 0.0 0.0 0.00 0.00 0.00 1008.5
20260507164508 0 268 0.0 7.0 0.00 0.00 0.00 1008.6
20260507163100 0 208 0.0 0.0 0.00 0.00 0.00 1008.7
20260507163000 0 290 0.0 0.0 0.00 0.00 0.00 1008.7
20260507161605 0 255 0.0 0.0 0.00 0.00 0.00 1008.8
20260507160052 0 264 0.0 11.0 0.00 0.00 0.00 1009.0
20260507154549 0 253 0.0 0.0 0.00 0.00 0.00 1009.2
20260507153013 0 271 0.0 0.0 0.00 0.00 0.00 1009.3
20260507151509 0 246 0.0 0.0 0.00 0.00 0.00 1009.4
20260507150002 0 280 0.0 0.0 0.00 0.00 0.00 1009.6
20260507144602 0 265 0.0 0.0 0.00 0.00 0.00 1009.8
20260507143057 0 241 0.0 0.0 0.00 0.00 0.00 1010.0
20260507141616 0 271 0.0 0.0 0.00 0.00 0.00 1010.2
20260507140043 0 207 0.0 0.0 0.00 0.00 0.00 1010.4
20260507134538 0 286 0.0 0.0 0.00 0.00 0.00 1010.5
20260507133034 0 279 0.0 0.0 0.00 0.02 0.00 1010.5
20260507131534 0 236 0.0 0.0 0.00 0.02 0.00 1010.7
20260507130055 0 288 0.0 0.0 0.00 0.02 0.00 1010.6
20260507124551 0 211 0.0 0.0 0.00 0.02 0.00 1010.6
20260507123045 0 250 0.0 0.0 0.00 0.04 0.00 1010.6
20260507121543 0 350 0.0 0.0 0.00 0.04 0.00 1010.8
20260507120043 0 350 0.0 0.0 0.00 0.04 0.00 1010.7
20260507114531 0 350 0.0 0.0 0.00 0.04 0.00 1010.8
20260507113039 0 350 0.0 0.0 0.00 0.09 0.00 1010.7
20260507111520 0 350 0.0 0.0 0.00 0.09 0.00 1010.6
20260507110017 0 350 0.0 0.0 0.00 0.09 0.00 1010.5
20260507104515 0 350 0.0 0.0 0.00 0.09 0.00 1010.4
20260507103009 0 350 0.0 0.0 0.00 0.18 0.00 1010.3
20260507101533 0 350 0.0 0.0 0.00 0.18 0.00 1010.2
20260507100036 0 350 0.0 0.0 0.00 0.18 0.00 1010.2
20260507094557 0 350 0.0 0.0 0.00 0.18 0.00 1010.3
20260507093050 0 350 0.0 0.0 0.00 0.27 0.00 1010.2
20260507091546 0 350 0.0 0.0 0.00 0.27 0.00 1010.3
20260507090043 0 350 0.0 0.0 0.00 0.27 0.00 1010.3
20260507084534 0 350 0.0 0.0 0.00 0.27 0.00 1010.3
20260507083030 0 350 0.0 0.0 0.00 0.34 0.00 1010.3
20260507081531 0 350 0.0 0.0 0.00 0.34 0.00 1010.2
20260507080019 0 350 0.0 0.0 0.00 0.34 0.00 1010.4
20260507074526 0 350 0.0 0.0 0.00 0.34 0.00 1010.4
20260507073011 0 350 0.0 0.0 0.00 0.34 0.00 1010.3
20260507071504 0 350 0.0 0.0 0.00 0.34 0.00 1010.4
20260507070100 0 350 0.0 0.0 0.00 0.34 0.00 1010.6
20260507064610 0 350 0.0 0.0 0.00 0.34 0.00 1010.5
20260507063102 0 350 0.0 0.0 0.00 0.39 0.00 1010.4
20260507061526 0 350 0.0 0.0 0.00 0.39 0.00 1010.6
20260507060012 0 350 0.0 0.0 0.00 0.39 0.00 1010.7
20260507054538 0 350 0.0 0.0 0.00 0.39 0.00 1010.8
20260507053036 0 350 0.0 0.0 0.00 0.44 0.00 1011.0
20260507051527 0 350 0.0 0.0 0.00 0.44 0.00 1011.3
20260507050022 0 350 0.0 0.0 0.00 0.44 0.00 1011.3
20260507044517 0 350 0.0 0.0 0.00 0.44 0.00 1011.3
20260507043013 0 350 0.0 0.0 0.00 0.45 0.00 1011.2
20260507041544 0 350 0.0 0.0 0.00 0.45 0.00 1011.2
20260507040034 0 350 0.0 0.0 0.00 0.45 0.00 1011.1
20260507034535 0 350 0.0 0.0 0.00 0.45 0.00 1011.2
20260507033024 0 350 0.0 0.0 0.00 0.45 0.45 1010.9
20260507031519 0 350 0.0 0.0 0.00 0.45 0.45 1010.8
20260507030015 0 350 0.0 0.0 0.00 0.45 0.45 1010.9
20260507024552 0 350 0.0 0.0 0.00 0.45 0.45 1010.6
20260507023037 0 350 0.0 0.0 0.00 0.45 0.45 1010.6
20260507021529 0 350 0.0 0.0 0.00 0.45 0.45 1010.5
20260507020026 0 350 0.0 0.0 0.00 0.45 0.45 1010.3
20260507014525 0 350 0.0 0.0 0.00 0.45 0.45 1010.2
20260507013017 0 350 0.0 0.0 0.00 0.45 0.45 1009.9